[[{"header":{"parameterUnit":"m.s-1","parameterCategory":1,"la1":30.2991,"la2":30.254,"lo1":-89.0895,"lo2":-89.0444,"dy":0.0017,"dx":0.0017,"nx":28,"ny":28,"refTime":"2025-03-30T21:00:00:Z","depth":0,"parameterNumber":2,"parameterNumberName":"U-component_of_WINDS"},"data":[0,0,0,0,0,0,0,0,0,0,0,0,0,0,0,0,0,0,0,0,0,0,0,0,0,0,0,0,0,0,0,0,0,0,0,0,0,0,0,0,0,0,0,0,0,0,0,0,0,0,0,0,0,0,0,0,0,0,1.1814,1.1813,0,1.1759,1.1759,1.1758,1.1755,1.1755,1.1756,1.1756,1.1698,1.1696,1.1694,0,0,0,0,0,0,0,0,0,0,0,0,0,1.1915,1.1913,1.1814,1.1813,1.1813,1.1759,1.1759,1.1758,1.1754,1.1755,1.1756,1.1757,1.1699,1.1697,1.1694,0,0,0,0,0,0,0,0,0,0,0,0,0,1.1867,1.1913,1.1814,1.1805,1.1803,1.176,1.1759,1.1758,1.1754,1.1755,1.1756,1.1757,1.17,1.1697,1.1694,1.1655,0,0,1.1684,1.1682,0,0,0,0,0,0,0,0,1.187,1.1863,1.1807,1.1805,1.1804,1.1765,1.1773,1.1723,1.1754,1.1773,1.1756,1.1758,1.172,1.1715,1.1702,1.1652,1.165,1.1684,1.1682,1.168,1.1679,0,0,0,0,0,0,0,1.1873,1.1865,1.1792,1.1806,1.1804,1.1803,1.1797,1.1764,1.1741,1.1771,1.1771,1.1765,1.1719,1.1705,1.1701,1.1649,1.1684,1.1681,1.1679,1.1678,1.1566,1.1565,0,0,0,0,0,0,1.1878,1.1868,1.1794,1.1791,1.184,1.18,1.1794,1.1776,1.1742,1.1738,1.1764,1.1765,1.171,1.1705,1.1699,1.1652,1.168,1.1677,1.1675,1.1567,1.1566,1.1565,0,0,0,0,0,0,1.1881,1.1872,1.1796,1.1829,1.182,1.1798,1.1778,1.1775,1.1761,1.1736,1.1732,1.1754,1.1711,1.1703,1.1667,1.165,1.1676,1.1673,1.1568,1.1567,1.1565,1.1559,0,0,0,0,0,0,1.1883,1.1873,1.1858,1.1829,1.1818,1.1765,1.1777,1.1773,1.1756,1.1757,1.1726,1.1722,1.1711,1.1671,1.1663,1.1646,1.167,1.157,1.1568,1.1566,1.156,1.1557,1.1554,0,0,0,0,0,1.1887,1.1857,1.1857,1.1848,1.1799,1.1764,1.1758,1.1746,1.1755,1.174,1.1724,1.1723,1.1654,1.1668,1.1659,1.164,1.1571,1.1568,1.1566,1.1562,1.1558,1.1554,0,0,0,0,0,0,1.1883,1.1853,1.1853,1.1813,1.1791,1.1764,1.1744,1.1742,1.1717,1.1719,1.1705,1.1698,1.1662,1.1647,1.1664,1.1602,1.1613,1.1609,1.1613,1.1609,1.1606,1.161,1.1668,0,0,0,0,0,1.1878,1.1852,1.1827,1.1795,1.1784,1.1766,1.175,1.1744,1.172,1.1711,1.1692,1.1669,1.1643,1.1625,1.1599,1.1558,1.1552,1.1542,1.1539,1.1536,1.1533,1.1511,1.1507,1.1557,1.1557,1.1557,0,0,1.1866,1.1847,1.1831,1.1793,1.1776,1.175,1.1758,1.173,1.171,1.1706,1.1671,1.1656,1.163,1.1592,1.1574,1.1578,1.1518,1.1533,1.1532,1.1529,1.1508,1.1504,1.1499,1.1556,1.1556,1.1556,0,0,1.1832,1.1814,1.1786,1.1768,1.1742,1.1731,1.1724,1.1697,1.1688,1.1652,1.1649,1.1626,1.1579,1.1561,1.1546,1.1507,1.1505,1.1498,1.1483,1.1462,1.1458,1.1455,1.1441,1.1436,1.1495,1.1495,1.1495,0,1.182,1.1781,1.1771,1.1743,1.1727,1.1724,1.1695,1.1678,1.1645,1.1633,1.164,1.1583,1.1564,1.1522,1.1513,1.15,1.1492,1.1501,1.146,1.1456,1.1452,1.1439,1.1434,1.1494,1.1494,1.1494,1.1494,0,1.1769,1.1742,1.1722,1.1691,1.1672,1.1644,1.163,1.1612,1.1608,1.1596,1.156,1.1538,1.1508,1.1498,1.1492,1.1455,1.1459,1.1463,1.1473,1.1447,1.1435,1.143,1.1493,1.1494,1.1494,1.1494,0,0,1.1728,1.1694,1.1687,1.1673,1.1645,1.1624,1.1596,1.1568,1.1553,1.1531,1.1507,1.1469,1.1473,1.1455,1.1448,1.143,1.1401,1.1436,1.1435,1.143,1.1359,1.1357,1.1351,1.14,1.1399,1.1398,1.1361,0,1.1691,1.1642,1.1633,1.159,1.1565,1.1563,1.1539,1.1519,1.1507,1.1485,1.1472,1.1445,1.1452,1.1441,1.1423,1.1408,1.1387,1.1411,1.1378,1.1377,1.1384,1.1344,1.1341,1.1307,1.1356,1.1356,1.1355,0,1.164,1.1618,1.1573,1.155,1.1539,1.1517,1.1492,1.147,1.1448,1.1441,1.1422,1.1418,1.1389,1.1401,1.1361,1.1378,1.1364,1.1355,1.1353,1.1349,1.1364,1.1339,1.1296,1.1291,1.1347,1.1348,1.1348,0,1.1616,1.1575,1.1543,1.1531,1.1503,1.1488,1.1476,1.1455,1.1439,1.1416,1.1406,1.138,1.1365,1.1345,1.1333,1.1344,1.1294,1.1306,1.1288,1.1288,1.1277,1.1277,1.1231,1.1268,1.1268,1.1268,1.1268,0,1.1575,1.1547,1.1532,1.1512,1.1481,1.1472,1.1442,1.1429,1.1411,1.1389,1.1385,1.1364,1.135,1.1328,1.1318,1.1287,1.128,1.1274,1.1271,1.1274,1.1275,1.1264,1.1266,1.1267,1.1267,1.1267,1.1268,0,1.1542,1.153,1.1496,1.1473,1.1467,1.1445,1.1425,1.1406,1.1396,1.1368,1.1361,1.1343,1.1317,1.1304,1.127,1.1263,1.1228,1.1227,1.1236,1.1235,1.1217,1.1219,1.1162,1.1154,1.1197,1.1196,1.1196,0,1.1516,1.1495,1.1471,1.1457,1.1444,1.1421,1.1405,1.1395,1.1379,1.1353,1.1337,1.1311,1.1289,1.1246,1.123,1.1205,1.1203,1.1185,1.1199,1.1203,1.1203,1.1205,1.1203,1.1182,1.1182,1.1181,1.1181,0,1.1472,1.1468,1.1446,1.1422,1.1404,1.1385,1.1366,1.1354,1.1341,1.1323,1.1297,1.128,1.1246,1.122,1.1194,1.118,1.1178,1.1177,1.1172,1.1174,1.118,1.1176,1.1229,1.1178,1.1178,1.1179,1.1179,1.1179,1.1442,1.1424,1.1405,1.1381,1.1366,1.1349,1.133,1.1318,1.1296,1.1269,1.1264,1.1236,1.1215,1.118,1.1166,1.1144,1.1148,1.114,1.1137,1.1136,1.1135,1.1184,1.1139,1.1139,1.1139,1.1139,1.1139,0,1.1398,1.1386,1.1364,1.1339,1.132,1.1322,1.1301,1.1285,1.1261,1.1242,1.1222,1.1192,1.1167,1.115,1.1124,1.1109,1.1108,1.1103,1.1104,1.1101,1.1133,1.114,1.1105,1.1105,1.1105,1.1105,1.1105,1.1105,1.1373,1.1343,1.1337,1.1299,1.1287,1.1261,1.1249,1.1233,1.1219,1.1186,1.1166,1.1155,1.1137,1.1111,1.1088,1.1084,1.1075,1.107,1.1065,1.1095,1.1099,1.1102,1.1109,1.1068,1.1068,1.1035,1.1035,1.1035]},{"header":{"parameterUnit":"m.s-1","parameterCategory":1,"la1":30.2991,"la2":30.254,"lo1":-89.0895,"lo2":-89.0444,"dy":0.0017,"dx":0.0017,"nx":28,"ny":28,"refTime":"2025-03-30T21:00:00:Z","depth":0,"parameterNumber":3,"parameterNumberName":"V-component_of_WINDS"},"data":[0,0,0,0,0,0,0,0,0,0,0,0,0,0,0,0,0,0,0,0,0,0,0,0,0,0,0,0,0,0,0,0,0,0,0,0,0,0,0,0,0,0,0,0,0,0,0,0,0,0,0,0,0,0,0,0,0,0,5.5716,5.5716,0,5.5742,5.5743,5.5743,5.5766,5.5767,5.5767,5.5767,5.5788,5.5789,5.5789,0,0,0,0,0,0,0,0,0,0,0,0,0,5.5682,5.5682,5.5716,5.5716,5.5716,5.5742,5.5743,5.5743,5.5766,5.5767,5.5767,5.5767,5.5788,5.5789,5.5789,0,0,0,0,0,0,0,0,0,0,0,0,0,5.5701,5.5683,5.5716,5.5731,5.5733,5.5742,5.5743,5.5743,5.5766,5.5767,5.5767,5.5767,5.5788,5.5789,5.5789,5.5783,0,0,5.579,5.5791,0,0,0,0,0,0,0,0,5.57,5.5702,5.5729,5.573,5.5732,5.5752,5.5739,5.5756,5.5766,5.5753,5.5767,5.5768,5.5775,5.5777,5.5781,5.5784,5.5785,5.5791,5.5791,5.5791,5.5791,0,0,0,0,0,0,0,5.5699,5.5701,5.5726,5.5729,5.5731,5.5736,5.5739,5.5742,5.5761,5.5755,5.5756,5.576,5.5776,5.578,5.5781,5.5785,5.579,5.5791,5.5791,5.5791,5.5789,5.5789,0,0,0,0,0,0,5.5696,5.57,5.5725,5.5727,5.5717,5.5736,5.574,5.5745,5.5762,5.5765,5.5759,5.576,5.5779,5.5781,5.5782,5.5779,5.5791,5.5791,5.5792,5.5789,5.5789,5.5789,0,0,0,0,0,0,5.5695,5.5698,5.5724,5.5714,5.5718,5.5736,5.5742,5.5745,5.5749,5.5765,5.5768,5.576,5.578,5.5782,5.5784,5.578,5.5792,5.5792,5.579,5.5789,5.5789,5.577,0,0,0,0,0,0,5.5694,5.5697,5.5696,5.5714,5.5718,5.5726,5.5742,5.5745,5.5751,5.5753,5.5767,5.5769,5.578,5.5783,5.5785,5.5781,5.5792,5.579,5.579,5.5789,5.5771,5.5769,5.5767,0,0,0,0,0,5.5692,5.5687,5.5695,5.5698,5.5717,5.5726,5.5728,5.5743,5.575,5.5748,5.576,5.5769,5.578,5.5783,5.5785,5.5781,5.579,5.579,5.5789,5.5772,5.577,5.5767,0,0,0,0,0,0,5.5664,5.569,5.5699,5.57,5.5711,5.573,5.5728,5.5739,5.5747,5.5748,5.5764,5.5767,5.5768,5.5775,5.5778,5.5778,5.5787,5.5786,5.5773,5.5771,5.5769,5.5767,5.5793,0,0,0,0,0,5.5659,5.5665,5.5687,5.5685,5.5691,5.5709,5.5713,5.5724,5.5735,5.5739,5.575,5.5759,5.5766,5.5769,5.5775,5.5773,5.5777,5.5771,5.5769,5.5768,5.5767,5.5769,5.5767,5.5786,5.5786,5.5786,0,0,5.5646,5.5661,5.5663,5.568,5.569,5.5696,5.5712,5.5717,5.5721,5.5739,5.5743,5.5752,5.5763,5.5764,5.5765,5.577,5.5763,5.5767,5.5765,5.5765,5.5768,5.5766,5.5764,5.5786,5.5786,5.5786,0,0,5.5626,5.5638,5.564,5.5651,5.5667,5.568,5.568,5.5698,5.5706,5.5711,5.5726,5.5731,5.574,5.5749,5.5754,5.5743,5.5752,5.5744,5.5734,5.5735,5.5734,5.5733,5.573,5.5729,5.5744,5.5744,5.5744,0,5.5608,5.5619,5.5638,5.5644,5.5651,5.5672,5.5674,5.5682,5.5699,5.5703,5.5709,5.5724,5.5733,5.5738,5.5736,5.5739,5.574,5.5742,5.5733,5.5732,5.5731,5.5729,5.5727,5.5743,5.5743,5.5743,5.5743,0,5.5596,5.5604,5.5603,5.5623,5.563,5.5633,5.5653,5.5658,5.567,5.5682,5.5688,5.57,5.5711,5.5713,5.5722,5.5719,5.5722,5.573,5.5739,5.5728,5.5726,5.5725,5.5741,5.5742,5.5742,5.5742,0,0,5.5556,5.559,5.5589,5.56,5.5622,5.5627,5.5632,5.5646,5.5651,5.5662,5.5667,5.5677,5.5686,5.5693,5.5704,5.5705,5.5698,5.5713,5.5714,5.5711,5.5698,5.5692,5.5691,5.5705,5.5705,5.5705,5.5697,0,5.554,5.5553,5.5573,5.5578,5.5587,5.5608,5.5613,5.5627,5.5639,5.5647,5.566,5.5668,5.5678,5.5683,5.5685,5.5698,5.5696,5.5699,5.5709,5.5709,5.5706,5.5689,5.5682,5.5674,5.5697,5.5696,5.5696,0,5.5523,5.5537,5.5545,5.557,5.5574,5.5578,5.5594,5.5601,5.5618,5.5627,5.5637,5.565,5.5657,5.5666,5.5676,5.5678,5.5684,5.5691,5.5691,5.5692,5.5702,5.569,5.5672,5.5671,5.5695,5.5695,5.5695,0,5.5495,5.5516,5.5524,5.5532,5.556,5.5563,5.5575,5.5592,5.56,5.5614,5.5619,5.5632,5.5639,5.5648,5.5665,5.567,5.5674,5.5684,5.5681,5.5681,5.568,5.568,5.5663,5.5684,5.5684,5.5684,5.5684,0,5.5475,5.5479,5.5512,5.5517,5.5523,5.5546,5.5551,5.5564,5.558,5.5588,5.5606,5.5613,5.5635,5.5644,5.5657,5.5664,5.5667,5.5674,5.5677,5.5673,5.5672,5.5676,5.5677,5.5683,5.5683,5.5683,5.5683,0,5.5443,5.5466,5.5477,5.5505,5.5512,5.5515,5.5539,5.5544,5.556,5.5569,5.5573,5.5596,5.5608,5.5627,5.5643,5.5652,5.5657,5.5663,5.5653,5.5655,5.5652,5.5652,5.5637,5.5637,5.5657,5.5657,5.5656,0,5.5429,5.5433,5.5464,5.5472,5.5484,5.5496,5.5506,5.5529,5.5538,5.556,5.5563,5.5578,5.559,5.5609,5.5626,5.564,5.5646,5.564,5.5648,5.5644,5.5647,5.5647,5.5648,5.5637,5.5637,5.5637,5.5637,0,5.5402,5.5414,5.5429,5.5448,5.546,5.5475,5.5492,5.5497,5.5524,5.5533,5.5548,5.5558,5.5578,5.5592,5.5609,5.562,5.5633,5.5635,5.5635,5.563,5.5624,5.5629,5.5648,5.5634,5.5635,5.5635,5.5635,5.5635,5.5379,5.5386,5.5409,5.5425,5.5441,5.5457,5.5465,5.5483,5.5497,5.5516,5.5529,5.5544,5.5563,5.5587,5.5598,5.5609,5.5615,5.5615,5.5615,5.5614,5.5614,5.5623,5.5612,5.5612,5.5612,5.5613,5.5613,0,5.5354,5.5372,5.5387,5.5411,5.5425,5.544,5.5459,5.5469,5.5482,5.55,5.5514,5.5532,5.5547,5.5568,5.5584,5.5589,5.5596,5.5593,5.5593,5.5595,5.5607,5.5606,5.5588,5.5588,5.5588,5.5588,5.5588,5.5588,5.5343,5.5355,5.5371,5.5392,5.5409,5.5425,5.5436,5.5451,5.5466,5.5486,5.55,5.5515,5.5534,5.5553,5.5568,5.5574,5.5579,5.5574,5.5582,5.5592,5.5594,5.5596,5.5595,5.5575,5.5575,5.5569,5.5569,5.5569]}]]